Location: Dehesa de la Cepeda
(40.6574°N, 4.3013°W)
Time: 08:31:18
(UTC+00:00)

Vanguard 3 - Pass Details

Date: 04 August 2021
Orbit: 510 x 3260 km, 33.3° (Epoch: 18 September)

Event Time Altitude Azimuth Distance (km) Brightness Sun altitude
Rises 23:05:14 0° 281° (W) 6,839 12.3 -29.6°
Reaches altitude 10° 23:10:04 10° 274° (W) 6,021 11.8 -29.9°
Maximum altitude 23:26:52 38° 216° (SW) 4,248 10.4 -30.9°
Enters shadow 23:30:12 36° 199° (SSW) 4,257 10.3 -31.1°
